Regional Weather Roundup
Issued by NWS

Home | Current Version | Previous Version | Text Only | Print | Product List | Glossary On
Versions: 1 2 3 4 5 6 7 8 9 10 11 12 13 14 15 16 17 18 19 20 21 22 23 24 25 26 27 28 29 30 31 32 33 34 35 36 37 38 39 40 41 42 43 44 45 46 47 48 49 50
000
ASUS46 KLOX 271813
RWRCA

SOUTHERN CALIFORNIA WEATHER ROUNDUP
NATIONAL WEATHER SERVICE OXNARD CALIFORNIA
1100 AM PDT THU APR 27 2017

NOTE: "FAIR" INDICATES FEW OR NO CLOUDS BELOW 12,000 FEET WITH NO
SIGNIFICANT WEATHER AND/OR OBSTRUCTIONS TO VISIBILITY.

  -  STATIONS PRECEEDED BY AN ASTERISK (*) ARE NOT NWS OR FAA
     STATIONS AND ARE NOT SUBJECT TO NWS AND FAA QUALITY CONTROL.

CAZ041-042-087-271900-
LA AND ORANGE COUNTY COASTAL AREAS


CITY           SKY/WX    TMP DP  RH WIND       PRES   REMARKS
L.A. DOWNTOWN  MOSUNNY   76  56  49 VRB3      29.80F
L.A. AIRPORT   PTSUNNY   67  55  65 W12       29.82S
LONG BEACH     MOSUNNY   66  55  67 VRB7      29.82S

CITY           SKY/WX    TMP DP  RH WIND       PRES   REMARKS
AVALON           N/A     64 N/A N/A E1          N/A
FULLERTON      MOSUNNY   70  56  61 VRB5      29.81F
*GETTY CENTER    N/A     72  41  33 NE12G22     N/A
HAWTHORNE      MOSUNNY   66  55  67 W9        29.82S
*LEO CARRILLO    N/A     64  54  69 W17         N/A
*LOS ALAMITOS  PTSUNNY   68  56  65 S6        29.82F
*REDONDO BEACH   N/A     64  55  72 SW6       29.83R
SANTA ANA      PTSUNNY   68  57  68 SW9       29.83S
STA MONICA APT MOSUNNY   66  54  65 S8        29.82S
TORRANCE       PTSUNNY   66  54  63 NW8       29.82
*UCLA            N/A     73  41  31 N12G22    29.79R

$$

CAZ547-548-048-271900-
LA COUNTY VALLEYS AND INLAND EMPIRE


CITY           SKY/WX    TMP DP  RH WIND       PRES   REMARKS
BURBANK        MOSUNNY   75  42  30 NW21G29   29.82R
VAN NUYS       MOSUNNY   75  43  31 N25G39    29.82S

CITY           SKY/WX    TMP DP  RH WIND       PRES   REMARKS
CORONA AIRPORT PTCLDY    71  53  52 NW10      29.82F
*CHATSWORTH      N/A     73  46  38 N18       29.78F
CHINO          MOSUNNY   72  55  55 VRB6      29.83F
*CLAREMONT       N/A     67  54  61 SW5         N/A
MARCH AFB      MOSUNNY   70  49  47 CALM      29.81F
*NORTHRIDGE      N/A     72  39  30 NW9G26      N/A
ONTARIO        CLOUDY    68  53  58 SW7       29.83R
*PASADENA        N/A    N/A N/A N/A E8          N/A
POMONA         SUNNY     66  52  59 W7        29.85S
RIVERSIDE      MOSUNNY   69  53  56 CALM      29.81F
SAN BERNARDINO PTSUNNY   70  50  49 CALM      29.82F
*SAN GABRIEL     N/A     69  58  65 SE3       29.88S
*SAN RAFAEL HI   N/A     73  50  43 W6G17       N/A
*SAUGUS          N/A     68  44  42 N35G48      N/A
*WHITEMAN AP   SUNNY     72  41  33 NW14G32   29.88R
*WHITTIER HILL   N/A     74  59  59 S3          N/A
*WOODLAND HILL   N/A     75  43  31 N10         N/A

$$

CAZ054-055-271900-
LA AND SAN BERNARDINO COUNTY MOUNTAINS


CITY           SKY/WX    TMP DP  RH WIND       PRES   REMARKS
*ACTON           N/A     68  42  38 SW9         N/A
*BIG BEAR AIRP PTCLDY    59  18  20 SW7G17    29.97F
*BIG PINES       N/A     61  13  15 W3          N/A
*CHILAO          N/A     64  17  16 N20G40      N/A
SANDBERG       FOG       47  46  97 N9G29     29.99R VSB<1/4
*WARM SPRINGS    N/A     57  57 100 NW13G35     N/A

$$

CAZ028-029-059-060-099-271900-
ANTELOPE VALLEY AND SURROUNDING AREAS


CITY           SKY/WX    TMP DP  RH WIND       PRES   REMARKS
LANCASTER      MOSUNNY   66  44  45 W33G41    29.88R
PALMDALE       MOSUNNY   66  44  45 W31G38    29.90R
*POPPY PARK      N/A     60  47  62 SW14G26     N/A

CITY           SKY/WX    TMP DP  RH WIND       PRES   REMARKS
29 PALMS       PTSUNNY   75  36  24 W17G24    29.86F
BARSTOW/DAGGET MOSUNNY   74  40  29 W16G23    29.82F
BISHOP         MOSUNNY   73  21  14 N24G31    29.85S
CHINA LAKE     PTSUNNY   75  33  21 VRB7      29.81R
EDWARDS AFB    CLOUDY    68  40  35 W36G45    29.80F
MOJAVE         SUNNY     63  45  51 SW26G33   29.90S
NEEDLES        SUNNY     88  33  14 NE9G16    29.70S
VICTORVILLE    MOSUNNY   68  37  32 W18G24    29.88R

$$

CAZ039-040-271900-
VENTURA AND SANTA BARBARA COUNTY COAST


CITY           SKY/WX    TMP DP  RH WIND       PRES   REMARKS
CAMARILLO      MOSUNNY   70  54  56 SW9       29.84S
NWS OXNARD       N/A     65  53  63 CALM      29.83S
OXNARD AIRPORT MOSUNNY   63  53  70 W15       29.85S
*POINT MUGU    PTSUNNY   63  53  70 W14       29.86R
SBA APT/GOLETA MOSUNNY   77  50  38 N10       29.83F
*SANTA BARBARA   N/A     75  49  39 N5        29.90F
*VENTURA         N/A     69  55  62 SW6       29.82S

$$

CAZ044-045-271900-
VENTURA COUNTY VALLEYS


CITY           SKY/WX    TMP DP  RH WIND       PRES   REMARKS
*SIMI VALLEY     N/A     71  49  45 NE12      29.79F
*WESTLAKE VILL   N/A     72  51  46 NE1       29.80F
*OJAI            N/A     78  51  38 W1        29.76S
*FILLMORE        N/A     79  50  36 SE9       29.84F

$$

CAZ053-271900-
VENTURA COUNTY MOUNTAINS


CITY           SKY/WX    TMP DP  RH WIND       PRES   REMARKS
*LOCKWOOD VLY    N/A     59  36  41 SE2         N/A
*FRAZIER MTN     N/A     35  31  88 CALM      29.71R
*ROSE VALLEY     N/A     70  34  26 MISG        N/A

$$

CAZ034-035-036-271900-
CENTRAL COAST AND SANTA YNEZ VALLEY


CITY           SKY/WX    TMP DP  RH WIND       PRES   REMARKS
SAN LUIS OBISP MOSUNNY   70  54  56 NW10      29.96S
SANTA MARIA    MOSUNNY   65  53  65 NW17      29.95S

CITY           SKY/WX    TMP DP  RH WIND       PRES   REMARKS
*CAL POLY SLO    N/A     66  54  63 W9          N/A
*LOMPOC        SUNNY     67  52  58 NW13      29.94F
*PISMO BEACH     N/A     65  53  66 CALM      29.95F
*SANTA YNEZ    FAIR      70  52  52 W18G25    29.89F

$$

CAZ037-038-051-271900-
SAN LUIS OBISPO COUNTY INTERIOR AND CUYAMA VALLEY


CITY           SKY/WX    TMP DP  RH WIND       PRES   REMARKS
*CUYAMA          N/A     61  47  58 CALM      29.90S
PASO ROBLES    PTSUNNY   67  48  50 N20       29.98S

$$

CAZ032-033-061-271900-
SOUTHERN DESERTS


CITY           SKY/WX    TMP DP  RH WIND       PRES   REMARKS
BLYTHE         SUNNY     86  42  21 N9        29.69S
IMPERIAL       SUNNY     84  54  35 VRB7      29.68S
PALM SPRINGS   SUNNY     85  43  22 NW15      29.72S
THERMAL        SUNNY     88  40  18 NW15      29.65F

$$

ELSEWHERE ACROSS THE WESTERN UNITED STATES AND MEXICO


CITY           SKY/WX    TMP DP  RH WIND       PRES   REMARKS
DEATH VALLEY,    N/A     86  33  15 NW2         N/A
DENVER, CO     CLOUDY    49  36  61 NW12      29.53S
GRAND CANYON,  SUNNY     57  25  29 W14G28    29.85S
HONOLULU, HI   MOSUNNY   79  64  61 E5        30.06R
KAHULUI, MAUI  MOSUNNY   75  64  69 VRB3      30.05R
LAKE TAHOE, CA MOSUNNY   47  14  26 NE7       30.02F
LAS VEGAS, NV  MOSUNNY   78  22  12 N15G29    29.75S
MAMMOTH LAKES, FAIR      58  14  17 W22G29    30.01R
MEXICO CITY, M CLOUDY    77  27  15 CALM      30.18
PHOENIX, AZ    MOSUNNY   81  33  17 MISG      29.68F
PORTLAND, OR   PTSUNNY   50  41  71 SW10      30.14F
RENO, NV       MOSUNNY   55  20  25 NW12G24   30.02R
SALT LAKE CITY PTSUNNY   48  29  47 NW23G30   29.84S
SAN DIEGO, CA  CLOUDY    65  58  78 NW8       29.85S
SAN FRANCISCO, PTSUNNY   61  47  59 W10       30.08R
SAN JOSE, CA   PTSUNNY   63  50  62 NW12      30.07R
SEATTLE, WA    PTSUNNY   49  39  68 S12       30.08S
TIJUANA, MEX   PTSUNNY   66  54  63 SW10      29.86

$$

STATION/POSITION TIME  TEMP    WIND        PRES    VSBY  WAVE
                       AIR SEA DIR/SP/G                  HT/PER
                 (UTC) (F)     (DEG/KT/KT) (MB)    (MI)  (FT/S)
POINT ARGUELLO B NOT AVBL
WEST SANTA BARBA 1750   53 50  320/ 23/ 25 1013.4F        10/ 8
POINT CONCEPTION NOT AVBL
EAST SANTA BARBA 1800          270/ 17/ 21 1011.0
SANTA MONICA BAY 1800   61 61  300/ 14/ 17 1010.5



USA.gov is the U.S. government's official web portal to all federal, state and local government web resources and services.